Regional Weather Roundup
Issued by NWS Green Bay, WI

Home | Current Version | Previous Version | Graphics & Text | Print | Product List | Glossary Off
Versions: 1 2 3 4 5 6 7 8 9 10 11 12 13 14 15 16 17 18 19 20 21 22 23 24 25 26 27 28 29 30 31 32 33 34 35 36 37 38 39 40 41 42 43 44 45 46 47 48 49 50

000
ASUS43 KGRB 020610
RWRGRB

NORTH-CENTRAL AND NORTHEAST WISCONSIN REGIONAL WEATHER ROUNDUP
NATIONAL WEATHER SERVICE GREEN BAY WI
1200 AM CST MON MAR 02 2015

WIZ005-009-010>012-018-019-020700-
NORTH CENTRAL WISCONSIN

CITY           SKY/WX    TMP DP  RH WIND       PRES   REMARKS
IRONWOOD       CLOUDY    18   9  68 NW17G26   30.20R WCI   2
MANITOWISH WTR LGT SNOW  17  12  82 NW14G23   30.18R WCI   2
ARBOR VITAE    CLOUDY    19  10  66 NW13G21   30.17R WCI   6
EAGLE RIVER    CLOUDY    17   7  65 W10       30.14R WCI   4
LAND O LAKES   LGT SNOW  18  13  82 NW8       30.15R WCI   7
RHINELANDER    PTCLDY    11   3  70 W10       30.17R WCI  -3
PHILLIPS       CLOUDY    16   8  72 NW7       30.22R WCI   6
ANTIGO         CLEAR     14   6  69 W14G20    30.18R WCI  -1
TOMAHAWK       CLEAR     14   6  70 W5        30.21R WCI   6
MERRILL        CLEAR     13   5  72 W7        30.22R WCI   2
$$

WIZ013-073-020700-
NORTHEAST WISCONSIN

CITY           SKY/WX    TMP DP  RH WIND       PRES   REMARKS
IRON MOUNTAIN  CLEAR     15   3  59 W8        30.13R WCI   4
MARINETTE      CLEAR     18   5  57 W7        30.20R WCI   8
OCONTO         CLEAR     15   6  66 W9        30.23R WCI   3
$$

WIZ017-030-035>037-045-020700-
CENTRAL WISCONSIN

CITY           SKY/WX    TMP DP  RH WIND       PRES   REMARKS
MEDFORD        CLEAR     13   6  74 W7        30.23R WCI   3
WAUSAU         CLEAR     14   5  67 NW8       30.22R WCI   3
MOSINEE        CLEAR     14   9  79 W8        30.25R WCI   3
MARSHFIELD     CLEAR     14   6  70 W8        30.26R WCI   3
WISC RAPIDS    CLEAR     14   5  67 W6        30.29R WCI   5
STEVENS POINT  CLEAR     13   6  72 W6        30.26R WCI   4
WAUPACA        CLEAR     19   8  63 W7        30.27R WCI   9
SHAWANO        CLEAR     18   7  60 W5        30.24R
CLINTONVILLE   CLEAR     18   7  62 W6        30.25R WCI   9
$$

WIZ038-039-048-051-020700-
FOX VALLEY

CITY           SKY/WX    TMP DP  RH WIND       PRES   REMARKS
NWS GREEN BAY  CLEAR     17   7  64 SW7       30.25R WCI   8
APPLETON       CLEAR     16   5  62 W7        30.26R WCI   6
OSHKOSH        CLEAR     17   6  62 SW5       30.28R WCI  10
FOND DU LAC    CLEAR     17   6  62 SW8       30.29R WCI   7
$$

WIZ022-050-052-020700-
EAST CENTRAL WISCONSIN

CITY           SKY/WX    TMP DP  RH WIND       PRES   REMARKS
STURGEON BAY   CLEAR     18   5  57 W13       30.22R WCI   4
MANITOWOC      CLEAR     19   9  65 W14       30.26R WCI   6
SHEBOYGAN      CLEAR     19   7  59 W10       30.27R WCI   7
$$

LMZ563-521-522-541>543-020700-
LAKESHORE

STATION/POSITION TIME  TEMP    WIND        PRES    VSBY  WAVE
                       AIR SEA DIR/SP/G                  HT/PER
                 (UTC) (F)     (DEG/KT/KT) (MB)    (MI)  (FT/S)
SHEBOYGAN LKSHOR 0600   21     270/ 14/ 17 1026.6R
KEWAUNEE LKSHORE 0600   19     280/  9/ 13 1022.4R
NORTHPORT PIER   0600   19     280/  9/ 15 1022.0R
SISTER BAY LKSHO 0500   16     300/ 10/ 12   N/A
CHAMBERS ISLAND  0600   17     230/  5/ 10 1022.4R
MENOMINEE LKSHOR 0600   19     250/  8     1023.2S
$$


USA.gov is the U.S. government's official web portal to all federal, state and local government web resources and services.